Flag for United Kingdom Weather past 2 weeks in St Helens, England, United Kingdom

Now
37 °F

Clear.


Feels Like: 33 °F
Forecast: 40 / 50 °F
Wind: 6 mph from Northeast

Location: Liverpool Airport

Current Time: Apr 27, 2015 at 5:30:22 AM

Latest Report: Apr 27, 2015 at 4:20 AM


Visibility: 10 mi

Pressure: 29.89 "Hg

Humidity: 75%

Dew point: 30 °F

Location of St HelensLocation

Historic Weather in St Helens — Graph

°F

St Helens temperature yesterday

Maximum temperature yesterday: 50 °F (at 11:50 AM)
Minimum temperature yesterday: 39 °F (at 6:50 AM)
Average temperature yesterday: 46 °F

Past Weeks' High & Low Weather Summary

 TemperatureHumidityPressure
High64 °F (Apr 22, 2:20 PM)100% (Apr 13, 3:50 AM)30.60 "Hg (Apr 13, 3:50 AM)
Low36 °F (Apr 13, 3:20 AM)45% (Apr 18, 4:20 PM)29.56 "Hg (Apr 25, 5:20 AM)
Average50 °F75%30.16 "Hg
* Reported Apr 12 4:20 AM — Apr 27 4:20 AM, St Helens, Weather by CustomWeather, © 2015

Note: Actual official high and low records may vary slightly from our data, if they occured in-between our weather recording intervals... More about our weather records

Advertising

St Helens weather history for previous 24 hours

 ConditionsComfort  
Time TempWeatherWind HumidityBarometerVisibility
4:20 AM
Mon, Apr 27
37 °FClear.6 mph75%29.89 "Hg10 mi
3:50 AM39 °FPassing clouds.7 mph70%29.86 "HgN/A
2:50 AM41 °FPassing clouds.6 mph70%29.86 "HgN/A
2:20 AM43 °FPassing clouds.6 mph66%29.86 "HgN/A
1:50 AM43 °FPassing clouds.6 mph66%29.89 "HgN/A
1:20 AM43 °FPassing clouds.7 mph71%29.89 "HgN/A
12:50 AM43 °FPassing clouds.6 mph71%29.86 "HgN/A
12:20 AM43 °FPassing clouds.7 mph71%29.86 "HgN/A
11:50 PM
Sun, Apr 26
43 °FPassing clouds.7 mph71%29.86 "HgN/A
11:20 PM45 °FPassing clouds.6 mph66%29.86 "HgN/A
10:50 PM45 °FPassing clouds.7 mph66%29.86 "HgN/A
10:20 PM43 °FPassing clouds.6 mph71%29.86 "HgN/A
9:50 PM45 °FPassing clouds.8 mph66%29.86 "HgN/A
9:20 PM45 °FPassing clouds.8 mph71%29.86 "HgN/A
8:50 PM45 °FPassing clouds.12 mph71%29.86 "HgN/A
8:20 PM46 °FScattered showers. Scattered clouds.14 mph66%29.86 "HgN/A
7:50 PM46 °FScattered clouds.14 mph71%29.86 "HgN/A
7:20 PM46 °FScattered clouds.15 mph62%29.86 "HgN/A
6:50 PM48 °FPassing clouds.15 mph58%29.83 "HgN/A
6:20 PM50 °FPassing clouds.14 mph50%29.83 "HgN/A
5:50 PM48 °FPassing clouds.16 mph46%29.83 "HgN/A
5:20 PM48 °FPassing clouds.16 mph50%29.83 "HgN/A
4:50 PM48 °FPassing clouds.16 mph50%29.83 "HgN/A
4:20 PM50 °FPassing clouds.16 mph50%29.83 "HgN/A
3:50 PM50 °FPassing clouds.18 mph50%29.83 "HgN/A
3:20 PM50 °FPassing clouds.18 mph47%29.83 "HgN/A
2:50 PM50 °FPassing clouds.18 mph50%29.83 "HgN/A
2:20 PM50 °FPassing clouds.16 mph47%29.83 "HgN/A
1:50 PM50 °FPassing clouds.16 mph50%29.83 "HgN/A
1:20 PM50 °FPassing clouds.17 mph50%29.83 "HgN/A
12:50 PM50 °FPassing clouds.16 mph50%29.83 "HgN/A
12:20 PM50 °FPassing clouds.14 mph50%29.86 "HgN/A
11:50 AM50 °FPassing clouds.14 mph47%29.86 "HgN/A
11:20 AM48 °FPassing clouds.14 mph50%29.86 "HgN/A
10:50 AM48 °FPassing clouds.12 mph58%29.86 "HgN/A
10:20 AM46 °FPassing clouds.10 mph62%29.86 "HgN/A
9:50 AM46 °FPassing clouds.10 mph62%29.86 "HgN/A
9:20 AM46 °FPassing clouds.9 mph62%29.86 "HgN/A
8:50 AM46 °FPassing clouds.10 mph62%29.83 "HgN/A
8:20 AM43 °FPassing clouds.8 mph66%29.83 "HgN/A
7:50 AM41 °FPassing clouds.8 mph66%29.83 "HgN/A
7:20 AM41 °FPassing clouds.7 mph70%29.83 "HgN/A
6:50 AM39 °FPassing clouds.10 mph75%29.83 "HgN/A
6:20 AM41 °FClear.7 mph76%29.80 "Hg10 mi
5:50 AM41 °FClear.9 mph70%29.80 "Hg10 mi
5:20 AM41 °FClear.10 mph76%29.80 "Hg10 mi
Weather by CustomWeather, © 2015

See weather overviewHow to use our weather pages